TimeEDT,TemperatureF,Dew PointF,Humidity,Sea Level PressureIn,VisibilityMPH,Wind Direction,Wind SpeedMPH,Gust SpeedMPH,PrecipitationIn,Events,Conditions,WindDirDegrees,DateUTC
12:52 AM,42.1,35.1,76,29.99,10.0,West,4.6,-,N/A,,Clear,280,2011-10-26 04:52:00
1:52 AM,39.0,34.0,82,30.00,10.0,Calm,Calm,-,N/A,,Clear,0,2011-10-26 05:52:00
2:52 AM,37.9,36.0,93,29.99,10.0,West,3.5,-,N/A,,Mostly Cloudy,280,2011-10-26 06:52:00
3:52 AM,43.0,36.0,76,29.98,10.0,WNW,3.5,-,N/A,,Overcast,290,2011-10-26 07:52:00
4:52 AM,43.0,36.0,76,29.99,9.0,West,3.5,-,N/A,,Mostly Cloudy,270,2011-10-26 08:52:00
5:52 AM,44.1,37.0,76,29.96,10.0,Calm,Calm,-,N/A,,Overcast,0,2011-10-26 09:52:00
6:52 AM,44.1,37.9,79,29.94,10.0,Calm,Calm,-,N/A,,Overcast,0,2011-10-26 10:52:00
8:52 AM,46.0,39.0,76,29.96,10.0,Calm,Calm,-,N/A,,Overcast,0,2011-10-26 12:52:00
9:52 AM,48.0,39.0,71,29.94,10.0,Calm,Calm,-,N/A,,Overcast,0,2011-10-26 13:52:00
11:52 AM,48.0,39.9,74,29.89,10.0,Calm,Calm,-,0.00,,Overcast,0,2011-10-26 15:52:00
12:52 PM,48.9,39.9,71,29.86,10.0,Calm,Calm,-,N/A,,Overcast,0,2011-10-26 16:52:00
1:52 PM,51.1,39.0,63,29.82,10.0,Variable,3.5,-,N/A,,Overcast,0,2011-10-26 17:52:00
3:28 PM,51.8,39.2,62,29.80,10.0,East,4.6,-,N/A,,Overcast,80,2011-10-26 19:28:00
4:22 PM,51.8,39.2,62,29.79,10.0,ENE,3.5,-,N/A,,Overcast,70,2011-10-26 20:22:00
4:30 PM,51.8,39.2,62,29.79,10.0,NE,3.5,-,N/A,,Overcast,50,2011-10-26 20:30:00
4:40 PM,51.8,39.2,62,29.79,10.0,NE,3.5,-,N/A,,Overcast,40,2011-10-26 20:40:00
4:52 PM,51.1,39.9,66,29.79,10.0,Calm,Calm,-,N/A,,Overcast,0,2011-10-26 20:52:00
5:40 PM,50.0,42.8,76,29.79,10.0,NNE,3.5,-,N/A,,Overcast,30,2011-10-26 21:40:00
5:52 PM,50.0,42.1,74,29.79,10.0,NE,3.5,-,N/A,,Overcast,40,2011-10-26 21:52:00
5:59 PM,50.0,42.8,76,29.79,10.0,Calm,Calm,-,N/A,,Overcast,0,2011-10-26 21:59:00
6:52 PM,48.9,43.0,80,29.78,10.0,NNW,3.5,-,N/A,,Overcast,330,2011-10-26 22:52:00
7:52 PM,48.0,43.0,83,29.78,10.0,North,3.5,-,N/A,,Overcast,360,2011-10-26 23:52:00
8:52 PM,48.0,44.1,86,29.76,10.0,Calm,Calm,-,0.00,,Overcast,0,2011-10-27 00:52:00
9:52 PM,48.0,46.0,93,29.77,10.0,Calm,Calm,-,N/A,,Overcast,0,2011-10-27 01:52:00
10:52 PM,46.9,45.0,93,29.77,10.0,Calm,Calm,-,N/A,,Overcast,0,2011-10-27 02:52:00
11:52 PM,48.0,45.0,89,29.76,10.0,Calm,Calm,-,N/A,,Overcast,0,2011-10-27 03:52:00